| time (UTC) | temp C | wind direction | speed KPH | gust KPH | rain 1hr cm | rain 24hr cm | rain mn cm | humidity % | barometer mb |
| 20260510230641 | 16 | 198 | 0.0 | 0.0 | 0.00 | 0.20 | 0.18 | 93 | 1011.3 |
| 20260510230119 | 16 | 198 | 0.0 | 0.0 | 0.00 | 0.20 | 0.18 | 93 | 1011.1 |
| 20260510224642 | 16 | 198 | 0.0 | 0.0 | 0.00 | 0.23 | 0.18 | 93 | 1011.0 |
| 20260510223638 | 16 | 198 | 0.0 | 0.0 | 0.00 | 0.25 | 0.18 | 93 | 1010.9 |
| 20260510222637 | 16 | 198 | 0.0 | 3.2 | 0.00 | 0.30 | 0.18 | 92 | 1010.9 |
| 20260510221635 | 16 | 198 | 0.0 | 3.2 | 0.00 | 0.33 | 0.18 | 92 | 1010.9 |
| 20260510220635 | 16 | 198 | 0.0 | 3.2 | 0.00 | 0.36 | 0.18 | 93 | 1010.9 |
| 20260510215638 | 16 | 198 | 1.6 | 4.8 | 0.00 | 0.38 | 0.18 | 93 | 1010.9 |
| 20260510214637 | 16 | 198 | 0.0 | 0.0 | 0.00 | 0.41 | 0.18 | 92 | 1010.7 |
| 20260510213635 | 16 | 198 | 0.0 | 1.6 | 0.03 | 0.43 | 0.18 | 92 | 1010.8 |
| 20260510212635 | 16 | 198 | 0.0 | 0.0 | 0.05 | 0.43 | 0.18 | 92 | 1010.7 |
| 20260510212109 | 16 | 198 | 0.0 | 3.2 | 0.05 | 0.46 | 0.18 | 92 | 1010.6 |
| 20260510210633 | 16 | 198 | 0.0 | 0.0 | 0.18 | 0.46 | 0.18 | 91 | 1010.4 |
| 20260510205629 | 16 | 198 | 0.0 | 0.0 | 0.18 | 0.48 | 0.18 | 90 | 1010.5 |
| 20260510204633 | 16 | 198 | 1.6 | 4.8 | 0.18 | 0.53 | 0.18 | 88 | 1010.5 |
| 20260510203629 | 17 | 194 | 1.6 | 6.4 | 0.15 | 0.51 | 0.15 | 87 | 1010.7 |
| 20260510202631 | 17 | 194 | 0.0 | 6.4 | 0.13 | 0.56 | 0.13 | 84 | 1010.4 |
| 20260510201627 | 19 | 224 | 1.6 | 8.0 | 0.13 | 0.58 | 0.13 | 80 | 1010.2 |
| 20260510200626 | 20 | 256 | 1.6 | 6.4 | 0.00 | 0.51 | 0.00 | 71 | 1010.3 |
| 20260510195627 | 20 | 166 | 1.6 | 12.9 | 0.00 | 0.56 | 0.00 | 70 | 1009.9 |
| 20260510194625 | 21 | 175 | 1.6 | 11.3 | 0.00 | 0.58 | 0.00 | 67 | 1009.9 |
| 20260510194105 | 21 | 212 | 1.6 | 6.4 | 0.00 | 0.76 | 0.00 | 66 | 1009.9 |
| 20260510193119 | 21 | 191 | 1.6 | 8.0 | 0.00 | 0.89 | 0.00 | 68 | 1009.8 |
| 20260510191620 | 21 | 250 | 1.6 | 11.3 | 0.00 | 1.02 | 0.00 | 67 | 1009.8 |
| 20260510190620 | 21 | 174 | 1.6 | 8.0 | 0.00 | 1.09 | 0.00 | 70 | 1009.8 |
| 20260510185620 | 21 | 173 | 3.2 | 9.7 | 0.00 | 1.14 | 0.00 | 69 | 1009.9 |
| 20260510184621 | 20 | 173 | 1.6 | 11.3 | 0.00 | 1.22 | 0.00 | 72 | 1009.9 |
| 20260510183619 | 20 | 171 | 1.6 | 11.3 | 0.00 | 1.22 | 0.00 | 75 | 1010.0 |
| 20260510182620 | 20 | 182 | 1.6 | 11.3 | 0.00 | 1.22 | 0.00 | 74 | 1010.1 |
| 20260510181620 | 20 | 169 | 4.8 | 14.5 | 0.00 | 1.22 | 0.00 | 73 | 1010.0 |
| 20260510180621 | 20 | 186 | 1.6 | 9.7 | 0.00 | 1.22 | 0.00 | 75 | 1010.0 |
| 20260510175614 | 20 | 175 | 3.2 | 9.7 | 0.00 | 1.22 | 0.00 | 74 | 1010.1 |
| 20260510174614 | 20 | 180 | 1.6 | 11.3 | 0.00 | 1.22 | 0.00 | 78 | 1010.0 |
| 20260510173613 | 20 | 186 | 1.6 | 6.4 | 0.00 | 1.22 | 0.00 | 75 | 1010.0 |
| 20260510173100 | 20 | 186 | 1.6 | 8.0 | 0.00 | 1.22 | 0.00 | 75 | 1010.1 |
| 20260510171614 | 20 | 188 | 3.2 | 9.7 | 0.00 | 1.22 | 0.00 | 75 | 1010.2 |
| 20260510170613 | 19 | 252 | 3.2 | 11.3 | 0.00 | 1.22 | 0.00 | 78 | 1010.3 |
| 20260510165613 | 19 | 184 | 0.0 | 3.2 | 0.00 | 1.22 | 0.00 | 78 | 1010.3 |
| 20260510164615 | 18 | 184 | 1.6 | 4.8 | 0.00 | 1.22 | 0.00 | 79 | 1010.4 |
| 20260510163614 | 18 | 184 | 1.6 | 11.3 | 0.00 | 1.22 | 0.00 | 82 | 1010.5 |
| 20260510162611 | 18 | 266 | 1.6 | 6.4 | 0.00 | 1.22 | 0.00 | 83 | 1010.5 |
| 20260510161614 | 17 | 274 | 3.2 | 11.3 | 0.00 | 1.22 | 0.00 | 85 | 1010.6 |
| 20260510160611 | 17 | 186 | 1.6 | 8.0 | 0.00 | 1.22 | 0.00 | 84 | 1010.6 |
| 20260510155612 | 17 | 177 | 3.2 | 8.0 | 0.00 | 1.22 | 0.00 | 86 | 1010.6 |
| 20260510154611 | 17 | 277 | 3.2 | 6.4 | 0.00 | 1.22 | 0.00 | 86 | 1010.8 |
| 20260510153611 | 16 | 166 | 1.6 | 8.0 | 0.00 | 1.22 | 0.00 | 87 | 1011.0 |
| 20260510153055 | 16 | 165 | 1.6 | 8.0 | 0.00 | 1.22 | 0.00 | 88 | 1011.1 |
| 20260510151611 | 16 | 123 | 1.6 | 4.8 | 0.00 | 1.22 | 0.00 | 90 | 1011.1 |
| 20260510150611 | 15 | 113 | 1.6 | 4.8 | 0.00 | 1.22 | 0.00 | 91 | 1011.1 |
| 20260510150052 | 15 | 223 | 1.6 | 11.3 | 0.00 | 1.22 | 0.00 | 91 | 1011.0 |
| 20260510145535 | 14 | 188 | 1.6 | 8.0 | 0.00 | 1.22 | 0.00 | 92 | 1011.0 |
| 20260510143610 | 13 | 169 | 1.6 | 6.4 | 0.00 | 1.22 | 0.00 | 94 | 1011.0 |
| 20260510143045 | 13 | 166 | 1.6 | 8.0 | 0.00 | 1.22 | 0.00 | 95 | 1011.0 |
| 20260510141613 | 13 | 165 | 1.6 | 6.4 | 0.00 | 1.22 | 0.00 | 95 | 1011.2 |
| 20260510140613 | 12 | 122 | 0.0 | 3.2 | 0.00 | 1.22 | 0.00 | 96 | 1011.2 |
| 20260510135613 | 12 | 177 | 0.0 | 4.8 | 0.00 | 1.22 | 0.00 | 96 | 1011.2 |
| 20260510134613 | 12 | 177 | 0.0 | 0.0 | 0.00 | 1.22 | 0.00 | 96 | 1011.1 |
| 20260510133606 | 12 | 177 | 0.0 | 0.0 | 0.00 | 1.22 | 0.00 | 96 | 1010.9 |
| 20260510132605 | 12 | 177 | 0.0 | 0.0 | 0.00 | 1.22 | 0.00 | 96 | 1011.0 |
| 20260510131603 | 12 | 177 | 0.0 | 0.0 | 0.00 | 1.22 | 0.00 | 96 | 1011.0 |
| 20260510130604 | 12 | 177 | 0.0 | 0.0 | 0.00 | 1.22 | 0.00 | 96 | 1011.1 |
| 20260510125605 | 11 | 177 | 0.0 | 0.0 | 0.00 | 1.22 | 0.00 | 96 | 1011.1 |
| 20260510125110 | 11 | 177 | 0.0 | 0.0 | 0.00 | 1.22 | 0.00 | 96 | 1010.9 |
| 20260510123604 | 11 | 177 | 0.0 | 0.0 | 0.00 | 1.22 | 0.00 | 96 | 1010.9 |
| 20260510122605 | 11 | 177 | 0.0 | 0.0 | 0.00 | 1.22 | 0.00 | 96 | 1010.8 |
| 20260510121603 | 11 | 177 | 0.0 | 0.0 | 0.00 | 1.24 | 0.00 | 96 | 1010.7 |
| 20260510120604 | 11 | 177 | 0.0 | 0.0 | 0.00 | 1.24 | 0.00 | 96 | 1010.7 |
| 20260510120046 | 11 | 177 | 0.0 | 0.0 | 0.00 | 1.24 | 0.00 | 96 | 1010.7 |
| 20260510114605 | 11 | 177 | 0.0 | 0.0 | 0.00 | 1.24 | 0.00 | 96 | 1010.7 |
| 20260510113604 | 11 | 177 | 0.0 | 0.0 | 0.00 | 1.24 | 0.00 | 96 | 1010.3 |
| 20260510113042 | 11 | 177 | 0.0 | 0.0 | 0.00 | 1.24 | 0.00 | 96 | 1010.4 |
| 20260510111601 | 11 | 177 | 0.0 | 0.0 | 0.00 | 1.24 | 0.00 | 96 | 1010.4 |
| 20260510110556 | 11 | 177 | 0.0 | 0.0 | 0.00 | 1.24 | 0.00 | 96 | 1010.2 |
| 20260510105554 | 11 | 177 | 0.0 | 0.0 | 0.00 | 1.24 | 0.00 | 96 | 1010.2 |
| 20260510104554 | 10 | 177 | 0.0 | 0.0 | 0.00 | 1.24 | 0.00 | 96 | 1010.1 |
| 20260510103555 | 10 | 177 | 0.0 | 0.0 | 0.00 | 1.24 | 0.00 | 96 | 1010.0 |
| 20260510102555 | 10 | 177 | 0.0 | 0.0 | 0.00 | 1.24 | 0.00 | 96 | 1010.1 |
| 20260510101554 | 10 | 177 | 0.0 | 0.0 | 0.00 | 1.24 | 0.00 | 96 | 1009.9 |
| 20260510100554 | 10 | 177 | 0.0 | 1.6 | 0.00 | 1.24 | 0.00 | 96 | 1009.5 |
| 20260510100519 | 10 | 177 | 0.0 | 0.0 | 0.00 | 1.24 | 0.00 | 96 | 1009.9 |
| 20260510095029 | 10 | 177 | 0.0 | 3.2 | 0.00 | 1.24 | 0.00 | 95 | 1010.0 |
| 20260510093551 | 10 | 177 | 0.0 | 1.6 | 0.00 | 1.24 | 0.00 | 96 | 1010.0 |
| 20260510092549 | 11 | 177 | 0.0 | 0.0 | 0.00 | 1.24 | 0.00 | 96 | 1010.1 |
| 20260510091551 | 11 | 177 | 0.0 | 1.6 | 0.00 | 1.24 | 0.00 | 96 | 1009.9 |
| 20260510091447 | 11 | 177 | 0.0 | 1.6 | 0.00 | 1.24 | 0.00 | 96 | 1010.1 |
| 20260510091122 | 11 | 177 | 0.0 | 1.6 | 0.00 | 1.24 | 0.00 | 96 | 1009.8 |
| 20260510085515 | 11 | 177 | 0.0 | 0.0 | 0.00 | 1.27 | 0.00 | 96 | 1010.3 |
| 20260510083550 | 11 | 177 | 0.0 | 0.0 | 0.00 | 1.30 | 0.00 | 96 | 1010.1 |
| 20260510082549 | 11 | 177 | 0.0 | 1.6 | 0.00 | 1.32 | 0.00 | 96 | 1010.0 |
| 20260510081549 | 11 | 177 | 0.0 | 0.0 | 0.00 | 1.35 | 0.00 | 95 | 1009.9 |
| 20260510081026 | 11 | 177 | 0.0 | 0.0 | 0.00 | 1.35 | 0.00 | 95 | 1009.8 |
| 20260510075547 | 11 | 177 | 0.0 | 0.0 | 0.00 | 1.35 | 0.00 | 96 | 1009.9 |
| 20260510075031 | 11 | 177 | 0.0 | 0.0 | 0.00 | 1.35 | 0.00 | 96 | 1009.7 |
| 20260510074027 | 11 | 177 | 0.0 | 0.0 | 0.00 | 1.35 | 0.00 | 96 | 1009.7 |
| 20260510072549 | 11 | 177 | 0.0 | 0.0 | 0.00 | 1.35 | 0.00 | 96 | 1009.6 |
| 20260510071547 | 11 | 177 | 0.0 | 0.0 | 0.00 | 1.35 | 0.00 | 95 | 1009.6 |
| 20260510070548 | 11 | 177 | 0.0 | 0.0 | 0.00 | 1.35 | 0.00 | 95 | 1009.6 |
| 20260510065547 | 11 | 177 | 0.0 | 0.0 | 0.00 | 1.35 | 0.00 | 96 | 1009.6 |
| 20260510064545 | 11 | 177 | 0.0 | 0.0 | 0.00 | 1.35 | 0.00 | 96 | 1009.6 |
| 20260510064025 | 11 | 177 | 0.0 | 0.0 | 0.00 | 1.35 | 0.00 | 96 | 1009.7 |
| 20260510062545 | 11 | 177 | 0.0 | 0.0 | 0.00 | 1.35 | 0.00 | 96 | 1009.5 |
| 20260510061544 | 11 | 177 | 0.0 | 0.0 | 0.00 | 1.35 | 0.00 | 96 | 1009.3 |
| 20260510060544 | 11 | 177 | 0.0 | 0.0 | 0.00 | 1.35 | 0.00 | 96 | 1009.3 |
| 20260510055545 | 11 | 177 | 0.0 | 0.0 | 0.00 | 1.35 | 0.00 | 96 | 1009.3 |
| 20260510054547 | 11 | 177 | 0.0 | 0.0 | 0.00 | 1.35 | 0.00 | 96 | 1009.4 |
| 20260510053545 | 11 | 177 | 0.0 | 0.0 | 0.00 | 1.35 | 0.00 | 96 | 1009.5 |
| 20260510052545 | 11 | 177 | 0.0 | 1.6 | 0.00 | 1.35 | 0.00 | 96 | 1009.5 |
| 20260510051539 | 11 | 177 | 0.0 | 0.0 | 0.00 | 1.35 | 0.00 | 96 | 1009.4 |
| 20260510050539 | 11 | 177 | 0.0 | 0.0 | 0.00 | 1.35 | 0.00 | 96 | 1009.6 |
| 20260510045539 | 11 | 177 | 0.0 | 0.0 | 0.00 | 1.35 | 0.00 | 96 | 1009.6 |
| 20260510044538 | 11 | 177 | 0.0 | 0.0 | 0.00 | 1.35 | 0.00 | 95 | 1009.6 |
| 20260510043538 | 11 | 177 | 0.0 | 0.0 | 0.00 | 1.35 | 0.00 | 95 | 1009.6 |
| 20260510042536 | 11 | 177 | 0.0 | 0.0 | 0.00 | 1.35 | 0.00 | 95 | 1009.5 |
| 20260510041536 | 11 | 177 | 0.0 | 0.0 | 0.00 | 1.35 | 0.00 | 95 | 1009.4 |
| 20260510040536 | 11 | 177 | 0.0 | 0.0 | 0.00 | 1.35 | 0.00 | 95 | 1009.3 |
| 20260510035538 | 11 | 177 | 0.0 | 0.0 | 0.00 | 1.35 | 1.35 | 95 | 1009.4 |
| 20260510034531 | 11 | 177 | 0.0 | 0.0 | 0.00 | 1.35 | 1.35 | 95 | 1009.5 |
| 20260510033530 | 11 | 177 | 0.0 | 0.0 | 0.00 | 1.35 | 1.35 | 95 | 1009.5 |
| 20260510032530 | 11 | 177 | 0.0 | 0.0 | 0.00 | 1.35 | 1.35 | 95 | 1009.5 |
| 20260510031532 | 11 | 177 | 0.0 | 0.0 | 0.00 | 1.35 | 1.35 | 95 | 1009.5 |
| 20260510031500 | 11 | 177 | 0.0 | 1.6 | 0.00 | 1.35 | 1.35 | 95 | 1009.6 |
| 20260510025531 | 11 | 177 | 0.0 | 3.2 | 0.00 | 1.35 | 1.35 | 95 | 1009.4 |
| 20260510024530 | 11 | 177 | 0.0 | 3.2 | 0.00 | 1.35 | 1.35 | 95 | 1009.3 |
| 20260510024004 | 11 | 177 | 0.0 | 3.2 | 0.00 | 1.35 | 1.35 | 95 | 1009.2 |
| 20260510022531 | 11 | 177 | 0.0 | 1.6 | 0.00 | 1.35 | 1.35 | 95 | 1009.2 |
| 20260510021525 | 11 | 177 | 0.0 | 3.2 | 0.00 | 1.35 | 1.35 | 95 | 1009.4 |
| 20260510021002 | 11 | 177 | 0.0 | 3.2 | 0.00 | 1.35 | 1.35 | 95 | 1009.5 |
| 20260510015524 | 11 | 177 | 0.0 | 0.0 | 0.00 | 1.35 | 1.35 | 95 | 1009.5 |
| 20260510014525 | 11 | 177 | 0.0 | 0.0 | 0.00 | 1.35 | 1.35 | 95 | 1009.6 |
| 20260510013525 | 11 | 177 | 0.0 | 0.0 | 0.00 | 1.35 | 1.35 | 95 | 1009.5 |
| 20260510012525 | 11 | 177 | 0.0 | 1.6 | 0.00 | 1.35 | 1.35 | 95 | 1009.4 |
| 20260510011524 | 11 | 177 | 0.0 | 4.8 | 0.00 | 1.35 | 1.35 | 95 | 1009.3 |
| 20260510010524 | 11 | 76 | 0.0 | 0.0 | 0.00 | 1.35 | 1.35 | 95 | 1009.1 |
| 20260510005525 | 11 | 57 | 0.0 | 0.0 | 0.00 | 1.35 | 1.35 | 95 | 1009.1 |
| 20260510004519 | 11 | 57 | 0.0 | 0.0 | 0.00 | 1.35 | 1.35 | 95 | 1009.2 |
| 20260510003519 | 11 | 57 | 0.0 | 0.0 | 0.00 | 1.35 | 1.35 | 95 | 1008.9 |
| 20260510002519 | 11 | 57 | 0.0 | 0.0 | 0.00 | 1.35 | 1.35 | 95 | 1008.7 |
| 20260510001518 | 11 | 57 | 0.0 | 0.0 | 0.03 | 1.35 | 1.35 | 95 | 1008.6 |
| 20260510000519 | 11 | 57 | 0.0 | 0.0 | 0.03 | 1.35 | 1.35 | 95 | 1008.6 |
| 20260509235948 | 11 | 57 | 0.0 | 0.0 | 0.03 | 1.35 | 1.35 | 95 | 1008.7 |
| 20260509234519 | 11 | 57 | 0.0 | 0.0 | 0.08 | 1.35 | 1.35 | 95 | 1008.7 |
| 20260509233520 | 11 | 57 | 0.0 | 0.0 | 0.10 | 1.35 | 1.35 | 95 | 1008.8 |
| 20260509232520 | 11 | 57 | 0.0 | 0.0 | 0.13 | 1.35 | 1.35 | 95 | 1009.0 |
| 20260509231513 | 11 | 57 | 0.0 | 0.0 | 0.13 | 1.32 | 1.32 | 95 | 1009.2 |